Home > Weather > Qaanaaq > Past weeks

Flag for Greenland Past Weather in Qaanaaq, Greenland — Yesterday and Last 2 Weeks

Now
47 °F

Mostly cloudy.


Feels Like: 46 °F
Forecast: 42 / 44 °F
Wind: 3 mph from Northeast

Location: Thule A. B.

Current Time: Jul 24, 2016 at 5:06:28 AM

Latest Report: Jul 24, 2016 at 3:58 AM


Visibility: N/A

Pressure: 29.91 "Hg

Humidity: 84%

Dew Point: 43 °F

Location of QaanaaqLocation

Past Weather in Qaanaaq — Graph

°F

Qaanaaq Temperature Yesterday

Maximum temperature yesterday: 48 °F (at 6:58 AM)
Minimum temperature yesterday: 43 °F (at 7:58 AM)
Average temperature yesterday: 45 °F

High & Low Weather Summary for the Past Weeks

 TemperatureHumidityPressure
High61 °F (Jul 17, 1:58 PM)93% (Jul 10, 11:58 PM)30.19 "Hg (Jul 10, 11:58 PM)
Low37 °F (Jul 12, 3:58 AM)27% (Jul 17, 1:58 PM)29.37 "Hg (Jul 19, 3:58 PM)
Average45 °F74%29.87 "Hg
* Reported Jul 9 3:58 AM — Jul 24 3:58 AM, Qaanaaq, Weather by CustomWeather, © 2016

Note: Actual official high and low records may vary slightly from our data, if they occured in-between our weather recording intervals... More about our weather records

Advertising

Qaanaaq Weather History for the Previous 24 Hours

Scroll right to see more
 ConditionsComfort  
Time TempWeatherWind HumidityBarometerVisibility
3:58 AM
Sun, Jul 24
48 °FMostly cloudy.3 mph82%29.91 "HgN/A
2:58 AM46 °FOvercast.2 mph87%29.92 "HgN/A
1:58 AM46 °FMostly cloudy.No wind87%29.93 "HgN/A
12:58 AM46 °FMore clouds than sun.1 mph82%29.94 "HgN/A
11:58 PM
Sat, Jul 23
45 °FOvercast.No wind81%29.94 "HgN/A
10:58 PM45 °FMostly cloudy.3 mph81%29.94 "HgN/A
9:58 PM45 °FCloudy.No wind81%29.95 "HgN/A
8:58 PM45 °FOvercast.7 mph87%29.96 "HgN/A
7:58 PM45 °FOvercast.1 mph81%29.96 "HgN/A
6:58 PM46 °FBroken clouds.6 mph76%29.96 "HgN/A
5:58 PM46 °FPartly sunny.7 mph76%29.96 "HgN/A
4:58 PM46 °FPartly sunny.6 mph76%29.97 "HgN/A
3:58 PM46 °FSunny.6 mph76%29.96 "HgN/A
2:58 PM46 °FSunny.7 mph71%29.96 "HgN/A
1:58 PM46 °FSunny.6 mph71%29.97 "HgN/A
12:58 PM45 °FSunny.8 mph76%29.97 "HgN/A
11:58 AM45 °FSunny.5 mph76%29.97 "HgN/A
10:58 AM44 °FSunny.8 mph79%29.96 "HgN/A
9:58 AM45 °FSunny.6 mph76%29.96 "HgN/A
8:58 AM45 °FSunny.1 mph76%29.96 "HgN/A
7:58 AM43 °FSunny.5 mph81%29.96 "HgN/A
6:58 AM48 °FSunny.No wind71%29.95 "HgN/A
5:58 AM45 °FSunny.1 mph76%29.94 "HgN/A
Weather by CustomWeather, © 2016

See weather overviewHow to use our weather pages